Notices

What's New in latest Release from April 7th, 2021:

- Updated Glossary, including Speed of Maximum Gust, and Total Hourly Precipitation

- Updated national and regional climate services offices contacts and prices information

- Addition of station inventory lists for 1981-2010, 1971-2000, and 1961-1990 Normals.

If you haven't already, please take our survey and provide feedback about our website: https://eccc.sondage-survey.ca/f/LanguageSelection.aspx?s=442ca660-fcf1-47c0-95a9-59707d6fd709

Hourly Data Report for December 24, 2004

SHERBROOKE A
QUEBEC

45°26'00.000" N
71°41'00.000" W
241.40 m
7028124
71610
YSC

Download Data

Hourly Data (December 2004)
Hourly Data Report for December 24, 2004
TIME
LST
Temp Definition
°C
Dew Point Definition
°C
Rel Hum Definition
%
Precip. Amount Definition
mm

Wind Dir Definition
10's deg

Wind Spd Definition
km/h
Visibility Definition
km
Stn Press Definition
kPa
Hmdx Definition


Wind Chill Definition


Weather Definition


00:00 -0.4 -3.1 82   27 22 15.0 98.01   -6  
01:00 -2.1 -5.3 79   28 22 15.0 98.20   -8  
02:00 -4.8 -9.0 72   29 24 15.0 98.40   -12 Snow
03:00 -6.1 -10.7 70   26 15 15.0 98.55   -12  
04:00 -7.1 -11.8 69   26 28 15.0 98.61   -15  
05:00 -8.1 -12.4 71   27 28 15.0 98.74   -17  
06:00 -9.3 -12.9 75   28 22 15.0 98.81   -17  
07:00 -9.7 -13.4 74   27 28 15.0 98.82   -19  
08:00 -10.0 -13.7 74   27 22 19.3 98.94   -18 Mostly Cloudy
09:00 -9.9 -14.1 71   28 28 19.3 98.99   -19 Mostly Cloudy
10:00 -10.3 -14.4 72   27 24 19.3 99.05   -19 Mostly Cloudy
11:00 -10.5 -14.6 72   28 19 19.3 99.07   -18 Mostly Cloudy
12:00 -10.0 -14.5 70   27 24 19.3 99.04   -19 Mostly Cloudy
13:00 -9.9 -15.1 66   26 15 24.1 99.04   -17 Mostly Cloudy
14:00 -9.4 -15.4 62   26 17 24.1 99.01   -16 Mostly Cloudy
15:00 -9.6 -16.3 58   26 17 24.1 99.06   -17 Mostly Cloudy
16:00 -10.1 -16.6 59   26 15 24.1 99.09   -17 Mostly Cloudy
17:00 -10.7 -16.4 63   26 9 24.1 99.15   -16 Mostly Cloudy
18:00 -11.3 -16.8 64   22 6 15.0 99.17   -15  
19:00 -12.4 -17.1 68   23 9 15.0 99.16   -18  
20:00 -14.8 -17.1 83   13 6 15.0 99.15   -19  
21:00 -15.6 -17.5 85     0 15.0 99.12      
22:00 -15.6 -17.3 87   12 6 15.0 99.09   -20  
23:00 -16.7 -18.5 86     0 15.0 99.07      

Notes on Data Quality.

Legend

  • E = Estimated
  • M = Missing
  • NA = Not Available*
  • [empty] = Indicates an unobserved value
Date modified: